MDT,Max TemperatureF,Mean TemperatureF,Min TemperatureF,Max Dew PointF,MeanDew PointF,Min DewpointF,Max Humidity, Mean Humidity, Min Humidity, Max Sea Level PressureIn, Mean Sea Level PressureIn, Min Sea Level PressureIn, Max VisibilityMiles, Mean VisibilityMiles, Min VisibilityMiles, Max Wind SpeedMPH, Mean Wind SpeedMPH, Max Gust SpeedMPH,PrecipitationIn, CloudCover, Events, WindDirDegrees
2013-9-1,82,72,62,57,53,48,73,55,42,30.27,30.21,30.15,10,10,9,16,7,20,0.00,4,,107
2013-9-2,91,73,55,59,54,46,94,57,21,30.20,30.12,30.02,10,9,3,12,5,,0.00,0,,186
2013-9-3,93,78,62,57,53,48,72,48,23,30.19,30.13,30.06,10,10,3,15,5,22,0.00,1,Thunderstorm,335
2013-9-4,95,78,62,57,53,50,72,46,23,30.25,30.20,30.16,10,9,2,15,4,20,0.00,0,,3
2013-9-5,91,76,62,57,54,50,77,51,27,30.26,30.22,30.14,10,10,3,9,6,16,0.00,0,,311
2013-9-6,98,82,66,55,51,46,64,40,18,30.22,30.16,30.09,10,10,3,24,5,31,0.00,0,,353
2013-9-7,91,76,62,54,50,45,72,45,23,30.19,30.14,30.04,10,9,1,12,6,18,0.00,0,,41
2013-9-8,89,73,57,55,49,46,68,43,24,30.09,30.01,29.90,10,10,7,12,4,,0.00,1,,14
2013-9-9,84,72,59,57,54,50,94,64,35,30.12,30.02,29.93,10,10,5,28,9,36,0.27,3,Thunderstorm,136
2013-9-10,68,62,57,59,56,55,94,84,68,30.27,30.20,30.09,10,10,3,12,5,,0.51,7,,349
2013-9-11,66,63,60,63,59,57,100,90,78,30.29,30.26,30.24,10,7,2,18,7,24,0.52,8,,43
2013-9-12,62,60,59,61,59,57,100,91,82,30.35,30.30,30.26,10,7,3,18,12,22,0.77,8,,75
2013-9-13,75,67,59,63,59,57,100,86,60,30.26,30.07,29.96,10,7,2,13,4,,0.18,4,,309
2013-9-14,75,65,55,61,56,52,94,74,47,30.09,29.99,29.93,10,10,2,14,7,,0.26,3,,336
2013-9-15,60,58,53,57,55,52,100,91,82,30.33,30.24,30.09,10,9,4,15,7,20,0.96,7,,40
2013-9-16,71,62,53,57,54,52,94,81,57,30.31,30.20,30.08,10,9,5,10,6,,0.00,5,,140
2013-9-17,84,68,51,61,53,46,100,68,30,30.11,29.99,29.86,10,9,1,13,3,16,0.00,0,,118
2013-9-18,75,66,57,54,50,45,88,63,38,29.94,29.90,29.86,10,10,10,18,7,28,0.00,1,,213
2013-9-19,66,58,50,52,43,36,82,57,40,30.22,30.12,29.95,10,10,9,15,7,,0.03,2,Thunderstorm,31
2013-9-20,71,58,44,48,44,39,93,64,35,30.23,30.16,30.07,10,10,5,9,5,,0.00,1,,71
2013-9-21,82,64,46,52,47,43,87,60,28,30.08,29.97,29.84,10,10,3,10,4,,0.00,0,,79
2013-9-22,77,64,51,54,49,45,88,64,34,29.84,29.75,29.63,10,10,7,20,6,28,0.00,3,Thunderstorm,321
2013-9-23,66,58,50,52,41,34,94,55,30,30.07,29.81,29.61,10,10,10,29,12,44,0.22,3,,316
2013-9-24,75,58,41,46,40,36,87,58,29,30.17,30.05,29.90,10,10,7,12,6,,0.00,0,,101
2013-9-25,77,60,44,54,45,37,87,63,38,29.90,29.69,29.50,10,9,2,13,6,,0.00,0,,12
2013-9-26,68,55,42,48,43,37,87,65,45,29.84,29.77,29.62,10,10,10,13,5,16,0.00,0,,162
2013-9-27,53,47,39,50,44,37,93,88,76,30.03,29.89,29.78,10,8,2,13,8,,0.06,6,,48
2013-9-28,66,50,33,41,37,32,93,67,34,30.17,30.11,30.03,10,10,0,12,5,,0.03,0,,138
2013-9-29,73,56,39,46,37,28,87,54,25,30.14,30.02,29.92,10,9,2,14,5,,0.00,0,,117
2013-9-30,78,63,48,54,43,34,71,51,32,29.96,29.89,29.79,10,10,8,12,4,,0.00,0,,6